This is the latest recevied weather packets stored in our database for station/object LZ2SLL-13. If no packets are shown the sender has not sent any weather packets the latest 10 day(s).
| Time | Temp. | Humidity | Pressure | Rain* | Wind** | Luminosity | Snow |
|---|---|---|---|---|---|---|---|
| 1777525099 | 8.89° C | 94% | - | 1.52 mm | - | 56 W/m² | - |
| 1777524798 | 8.33° C | 94% | - | 1.78 mm | - | 55 W/m² | - |
| 1777524497 | 8.33° C | 95% | - | 1.52 mm | - | 51 W/m² | - |
| 1777524197 | 8.33° C | 95% | - | 1.78 mm | - | 46 W/m² | - |
| 1777523596 | 8.33° C | 95% | - | 2.03 mm | - | 29 W/m² | - |
| 1777523295 | 8.33° C | 95% | - | 2.29 mm | - | 24 W/m² | - |
| 1777522995 | 8.33° C | 94% | - | 2.54 mm | - | 24 W/m² | - |
| 1777522694 | 7.78° C | 94% | - | 2.54 mm | - | 19 W/m² | - |
| 1777522393 | 7.78° C | 93% | - | 2.79 mm | - | 14 W/m² | - |
| 1777522093 | 7.78° C | 92% | - | 2.79 mm | - | 12 W/m² | - |
| 1777521792 | 7.78° C | 92% | - | 2.79 mm | - | 14 W/m² | - |
| 1777521491 | 7.78° C | 91% | - | 3.3 mm | - | 12 W/m² | - |
| 1777521191 | 7.78° C | 91% | - | 3.3 mm | - | 10 W/m² | - |
| 1777520890 | 7.78° C | 90% | - | 3.3 mm | - | 10 W/m² | - |
| 1777520590 | 7.78° C | 91% | - | 3.3 mm | - | 10 W/m² | - |
| 1777520289 | 8.33° C | 91% | - | 3.05 mm | - | 7 W/m² | - |
| 1777519989 | 8.33° C | 91% | - | 2.79 mm | - | 6 W/m² | - |
| 1777519688 | 8.33° C | 90% | - | 2.79 mm | - | 3 W/m² | - |
| 1777519387 | 8.33° C | 87% | - | 2.29 mm | - | 3 W/m² | - |
| 1777519087 | 8.33° C | 86% | - | 2.03 mm | - | 2 W/m² | - |
| 1777518785 | 8.89° C | 84% | - | 1.52 mm | - | 1 W/m² | - |
| 1777518485 | 9.44° C | 81% | - | 1.27 mm | - | 0 W/m² | - |
| 1777518184 | 9.44° C | 84% | - | 1.02 mm | - | 0 W/m² | - |
| 1777517884 | 9.44° C | 92% | - | 0.51 mm | - | 0 W/m² | - |
| 1777517583 | 9.44° C | 92% | - | 0.25 mm | - | 0 W/m² | - |
* Rain latest hour (hover to see other rain measurements)
** Current wind speed in m/s (hover to see current wind gust speed)